Location: Asheville, NC
(35.6000°N, 82.5500°W)
Time: 14:03:54
(UTC-04:00)

Vanguard 3 - Pass Details

Date: 14 March 2018
Orbit: 508 x 3264 km, 33.3° (Epoch: 18 June)

Event Time Altitude Azimuth Distance (km) Brightness Sun altitude
Rises 08:27:17 0° 228° (SW) 6,951 11.5 8.3°
Reaches altitude 10° 08:31:54 10° 224° (SW) 6,087 11.3 9.2°
Maximum altitude 08:51:00 56° 153° (SSE) 3,504 10.9 13.0°
Drops below altitude 10° 09:06:23 10° 81° (E) 5,034 12.7 16.0°
Sets 09:09:45 0° 78° (ENE) 5,734 12.6 16.7°
